Find Starlink 30138

NORAD ID: 57605 Int'l Des: 2023-119 Owner: SPXS Country: US Constellation: starlink operational
LEOCIRCULAR

リアルタイム位置

3D地球を読み込み中...

Starlink 30138について

説明を読み込み中...

次回通過

Passes for default location (London). Set your location on the main map for personalized predictions.

高度履歴

Loading altitude history...

軌道要素

1 57605U 23119D 26125.43690822 .00001927 00000-0 79529-4 0 9994
2 57605 43.0029 121.2331 0001596 270.2774 89.7895 15.27587363151769
Epoch: May 5, 2026 • Age: 17 hours

現在のステータス

高度 491.9 km
速度 7.62 km/s
衛星直下点 -34.58°S, 153.36°E
打ち上げ日 Aug 11, 2023
運用期間 2.7 years
タイプ internet

技術仕様

分類 Payload
質量 730.00 kg
乾燥質量 700.00 kg
総質量 730.00 kg
長さ 0.30 m
直径 4.10 m
スパン 29.00 m
形状 Box + pan
製造者 SPXS
バスタイプ Starlink V2M
フェーズステータス In Orbit
所有者/国 SPXS/US

Most Searched